Location: Bijele Vode
(45.2833°N, 16.2000°E)
Time: 16:24:37
(UTC+00:00)

CENTAUR R/B - Pass Details

Date: 18 September 2020
Orbit: 755 x 1433 km, 63.4° (Epoch: 02 October)

Event Time Altitude Azimuth Distance (km) Brightness Sun altitude
Rises 17:34:21 0° 318° (NW) 4,002 6.6 -6.9°
Reaches altitude 10° 17:37:20 10° 329° (NNW) 3,143 5.8 -7.4°
Maximum altitude 17:44:06 32° 30° (NNE) 2,109 4.1 -8.6°
Enters shadow 17:51:21 11° 90° (E) 3,428 4.7 -9.8°
